User: anonymous   Login
Location: Cimarron National Grasslands
(37.1250°N, 101.7500°W)
Time: 22:42:00
(UTC-05:00)
Language:

Ariane Rocket - Orbit

View from above orbital plane
View from above orbital plane
View from above satellite
View from above satellite

Ground track
Ground track

The orbit data is extracted from the following two-line orbital elements,

1 23561U 95021B   17117.95556421 +.00000036 +00000-0 +27455-4 0  9994
2 23561 098.7929 117.9886 0007887 053.9823 004.8825 14.37808866153819
Epoch (UTC): 27 April 2017 22:56:00
Eccentricity: 0.0007887
inclination: 98.7929°
perigee height: 760 km
apogee height: 771 km
right ascension of ascending node: 117.9886°
argument of perigee: 53.9823°
revolutions per day: 14.37808866
mean anomaly at epoch: 4.8825°
orbit number at epoch: 15381

The dashed part of the orbit path shows where the satellite is in the earth's shadow,  

DLR